WXM80 ListenWXM80 Stop

You find our weather info also at:

UK Metoffice

WeatherCloud

Weather Underground

Northeastern Weather Network

AWEKAS

Citizen Weather Observer Program (CWOP)

HAMweather, WeatherForYou, PWS Weather


Weather Underground History page Text

Daily Summary for April 12, 2016 Units:  English    Metric   Both
« Previous Day
Next Day »
Daily Weekly Monthly Yearly Custom
  High: Low: Average:
Temperature: 57.8 °F 44.0 °F 52.2 °F
Dew Point: 53.5 °F 31.3 °F 45.4 °F
Humidity: 96 % 49 % 79 %
Wind Speed: 13.1 mph 0.5 mph 5.4 mph
Wind Gust: 26.5 mph - -
Wind:- - SW
Pressure: 30.26 in 29.90 in -
Precipitation: 0.18 in    
Historical Graphs
 
 
Tabular Data for April 12, 2016
Time Temperature Dew Point Pressure Wind Wind Speed Wind Gust Humidity Rainfall Rate (Hourly)
00:00 54.9 °F 48.8 °F 29.97 in SW 7.0 mph 15.0 mph 80 % 0.00 in
00:05 54.8 °F 48.7 °F 29.97 in WSW 10.2 mph 19.0 mph 80 % 0.00 in
00:11 54.8 °F 48.7 °F 29.97 in SSW 9.7 mph 12.7 mph 80 % 0.00 in
00:16 54.8 °F 48.7 °F 29.97 in SSW 8.2 mph 22.0 mph 80 % 0.00 in
00:21 54.9 °F 48.8 °F 29.97 in South 10.0 mph 17.3 mph 80 % 0.00 in
00:26 55.0 °F 48.9 °F 29.96 in SSW 9.1 mph 16.1 mph 80 % 0.00 in
00:36 55.0 °F 48.9 °F 29.97 in SSW 10.0 mph 21.9 mph 80 % 0.00 in
00:41 55.1 °F 49.0 °F 29.97 in SSW 9.8 mph 13.8 mph 80 % 0.00 in
00:46 55.1 °F 49.0 °F 29.97 in SSW 5.3 mph 11.5 mph 80 % 0.00 in
00:51 55.1 °F 49.0 °F 29.97 in South 8.9 mph 12.7 mph 80 % 0.00 in
00:56 55.2 °F 49.1 °F 29.97 in SW 12.2 mph 20.7 mph 80 % 0.00 in
01:02 55.2 °F 49.1 °F 29.97 in South 7.8 mph 18.0 mph 80 % 0.00 in
01:12 55.3 °F 49.2 °F 29.96 in SSW 10.5 mph 16.1 mph 80 % 0.00 in
01:17 55.2 °F 49.1 °F 29.97 in SW 7.5 mph 16.1 mph 80 % 0.00 in
01:22 55.1 °F 49.4 °F 29.96 in South 8.2 mph 15.0 mph 81 % 0.00 in
01:27 55.0 °F 49.3 °F 29.96 in South 11.7 mph 16.1 mph 81 % 0.00 in
01:32 55.0 °F 49.3 °F 29.96 in SSE 11.3 mph 17.3 mph 81 % 0.00 in
01:37 54.9 °F 49.2 °F 29.95 in SSW 9.2 mph 13.0 mph 81 % 0.00 in
01:42 54.8 °F 49.4 °F 29.95 in SSE 9.5 mph 17.3 mph 82 % 0.00 in
01:47 54.8 °F 49.4 °F 29.95 in SSW 8.5 mph 17.3 mph 82 % 0.00 in
01:53 54.8 °F 49.4 °F 29.95 in SSW 9.2 mph 18.4 mph 82 % 0.00 in
01:58 54.8 °F 49.4 °F 29.95 in SSW 10.0 mph 16.1 mph 82 % 0.00 in
02:03 54.8 °F 49.4 °F 29.95 in SSW 8.5 mph 16.1 mph 82 % 0.00 in
02:08 54.7 °F 49.3 °F 29.95 in SSW 9.9 mph 15.0 mph 82 % 0.00 in
02:13 54.7 °F 49.3 °F 29.94 in SSW 9.6 mph 13.8 mph 82 % 0.00 in
02:18 54.7 °F 49.6 °F 29.95 in SSW 7.7 mph 13.8 mph 83 % 0.00 in
02:23 54.8 °F 49.7 °F 29.94 in SSE 8.8 mph 26.5 mph 83 % 0.00 in
02:28 54.8 °F 49.4 °F 29.94 in SSW 10.9 mph 16.1 mph 82 % 0.00 in
02:33 54.8 °F 49.4 °F 29.94 in SSE 10.4 mph 17.3 mph 82 % 0.00 in
02:38 54.8 °F 49.4 °F 29.93 in SSW 9.7 mph 10.4 mph 82 % 0.00 in
02:44 54.8 °F 49.4 °F 29.93 in South 8.0 mph 21.9 mph 82 % 0.00 in
02:49 54.9 °F 49.8 °F 29.92 in South 12.1 mph 19.6 mph 83 % 0.00 in
02:59 54.9 °F 49.8 °F 29.91 in South 8.6 mph 13.8 mph 83 % 0.00 in
03:04 54.9 °F 49.8 °F 29.92 in SSW 10.8 mph 17.3 mph 83 % 0.00 in
03:09 55.0 °F 49.9 °F 29.92 in SSE 8.4 mph 17.3 mph 83 % 0.00 in
03:14 55.0 °F 49.9 °F 29.92 in SW 12.6 mph 17.3 mph 83 % 0.00 in
03:19 55.1 °F 50.0 °F 29.91 in SSW 8.4 mph 20.7 mph 83 % 0.00 in
03:24 55.1 °F 50.4 °F 29.91 in SSW 9.9 mph 16.1 mph 84 % 0.00 in
03:29 55.1 °F 50.4 °F 29.91 in South 10.7 mph 19.6 mph 84 % 0.00 in
03:35 55.1 °F 50.4 °F 29.91 in South 10.0 mph 19.6 mph 84 % 0.00 in
03:40 55.2 °F 50.4 °F 29.91 in South 7.1 mph 11.5 mph 84 % 0.00 in
03:45 55.3 °F 50.5 °F 29.91 in SSW 9.7 mph 18.4 mph 84 % 0.00 in
03:50 55.3 °F 50.5 °F 29.91 in SSW 13.1 mph 18.4 mph 84 % 0.00 in
03:55 55.3 °F 50.2 °F 29.91 in SSW 10.8 mph 17.3 mph 83 % 0.00 in
04:00 55.4 °F 50.3 °F 29.90 in SW 6.7 mph 12.7 mph 83 % 0.00 in
04:05 55.4 °F 50.3 °F 29.90 in SSW 8.3 mph 17.3 mph 83 % 0.00 in
04:10 55.4 °F 50.3 °F 29.90 in South 11.0 mph 17.3 mph 83 % 0.00 in
04:15 55.4 °F 50.3 °F 29.90 in South 8.1 mph 13.8 mph 83 % 0.00 in
04:26 55.5 °F 50.4 °F 29.90 in SSW 7.9 mph 16.1 mph 83 % 0.00 in
04:31 55.4 °F 50.3 °F 29.90 in SSW 8.8 mph 17.3 mph 83 % 0.00 in
04:36 55.4 °F 50.3 °F 29.90 in South 7.0 mph 12.7 mph 83 % 0.00 in
04:41 55.3 °F 50.2 °F 29.90 in SSW 8.8 mph 19.6 mph 83 % 0.00 in
04:46 55.3 °F 50.2 °F 29.91 in South 7.5 mph 13.8 mph 83 % 0.00 in
04:51 55.3 °F 50.5 °F 29.90 in SW 8.7 mph 13.8 mph 84 % 0.00 in
04:56 55.2 °F 50.4 °F 29.90 in South 6.2 mph 15.0 mph 84 % 0.00 in
05:01 55.1 °F 50.4 °F 29.90 in South 10.9 mph 13.8 mph 84 % 0.00 in
05:06 55.1 °F 50.4 °F 29.91 in SSW 7.8 mph 12.7 mph 84 % 0.00 in
05:11 55.0 °F 50.3 °F 29.91 in SW 10.5 mph 13.0 mph 84 % 0.00 in
05:17 55.0 °F 50.3 °F 29.91 in SSW 8.2 mph 13.8 mph 84 % 0.00 in
05:22 55.0 °F 50.3 °F 29.91 in SSW 8.2 mph 16.1 mph 84 % 0.00 in
05:27 54.9 °F 50.2 °F 29.90 in SSW 9.2 mph 19.6 mph 84 % 0.00 in
05:32 54.9 °F 50.2 °F 29.90 in SSW 6.4 mph 15.0 mph 84 % 0.00 in
05:37 54.9 °F 50.5 °F 29.90 in SSW 8.0 mph 11.5 mph 85 % 0.00 in
05:42 54.9 °F 50.5 °F 29.91 in SW 8.8 mph 13.8 mph 85 % 0.00 in
05:47 54.8 °F 50.4 °F 29.91 in South 7.7 mph 12.7 mph 85 % 0.00 in
05:52 54.8 °F 50.4 °F 29.92 in South 6.2 mph 19.0 mph 85 % 0.00 in
06:02 54.7 °F 50.3 °F 29.91 in South 7.1 mph 13.8 mph 85 % 0.00 in
06:08 54.7 °F 50.3 °F 29.91 in SSW 4.4 mph 11.5 mph 85 % 0.00 in
06:13 54.7 °F 50.3 °F 29.91 in South 7.1 mph 15.0 mph 85 % 0.00 in
06:18 54.8 °F 50.7 °F 29.91 in South 8.2 mph 17.0 mph 86 % 0.00 in
06:23 54.7 °F 50.3 °F 29.91 in South 6.3 mph 11.5 mph 85 % 0.00 in
06:28 54.7 °F 50.6 °F 29.91 in South 6.6 mph 10.4 mph 86 % 0.00 in
06:33 54.7 °F 50.6 °F 29.92 in SSW 3.4 mph 18.4 mph 86 % 0.00 in
06:38 54.6 °F 50.8 °F 29.92 in South 8.9 mph 16.1 mph 87 % 0.00 in
06:43 54.5 °F 50.7 °F 29.92 in SSW 5.7 mph 10.4 mph 87 % 0.00 in
06:48 54.3 °F 50.8 °F 29.92 in SSW 8.4 mph 18.4 mph 88 % 0.00 in
06:53 54.2 °F 51.0 °F 29.92 in South 8.1 mph 15.0 mph 89 % 0.00 in
06:59 54.1 °F 50.9 °F 29.92 in South 9.3 mph 13.8 mph 89 % 0.00 in
07:04 54.0 °F 51.1 °F 29.92 in SSW 5.8 mph 16.1 mph 90 % 0.00 in
07:09 54.0 °F 51.1 °F 29.92 in SW 5.9 mph 14.0 mph 90 % 0.00 in
07:14 53.9 °F 51.0 °F 29.92 in South 6.5 mph 10.4 mph 90 % 0.00 in
07:19 53.9 °F 51.0 °F 29.92 in SSE 8.7 mph 13.8 mph 90 % 0.00 in
07:24 53.9 °F 51.0 °F 29.93 in SSW 6.9 mph 13.8 mph 90 % 0.00 in
07:29 53.9 °F 51.0 °F 29.93 in SSW 8.9 mph 15.0 mph 90 % 0.00 in
07:34 53.9 °F 51.0 °F 29.93 in SW 6.2 mph 10.4 mph 90 % 0.00 in
07:39 53.9 °F 51.3 °F 29.93 in SSW 9.0 mph 16.1 mph 91 % 0.00 in
07:44 53.9 °F 51.3 °F 29.94 in SSW 7.1 mph 8.1 mph 91 % 0.00 in
07:50 53.8 °F 51.2 °F 29.94 in SSW 7.1 mph 10.4 mph 91 % 0.01 in
07:55 53.7 °F 51.1 °F 29.94 in South 11.2 mph 19.6 mph 91 % 0.01 in
08:00 53.7 °F 51.4 °F 29.94 in South 4.3 mph 13.8 mph 92 % 0.01 in
08:10 53.5 °F 51.2 °F 29.93 in SSW 5.3 mph 10.0 mph 92 % 0.02 in
08:20 53.4 °F 51.4 °F 29.94 in South 5.4 mph 9.2 mph 93 % 0.03 in
08:25 53.3 °F 51.3 °F 29.94 in SSW 5.7 mph 12.0 mph 93 % 0.04 in
08:30 53.2 °F 51.2 °F 29.94 in SSE 5.0 mph 12.0 mph 93 % 0.04 in
08:35 53.2 °F 51.2 °F 29.94 in South 7.8 mph 11.5 mph 93 % 0.05 in
08:41 53.1 °F 51.1 °F 29.94 in SSW 4.0 mph 6.9 mph 93 % 0.06 in
08:46 53.0 °F 51.3 °F 29.94 in SSW 7.8 mph 12.7 mph 94 % 0.07 in
08:51 52.9 °F 51.2 °F 29.94 in SSW 6.3 mph 11.5 mph 94 % 0.06 in
08:56 52.9 °F 51.2 °F 29.93 in SW 5.6 mph 11.5 mph 94 % 0.07 in
09:01 52.9 °F 51.2 °F 29.93 in SSW 4.0 mph 11.5 mph 94 % 0.08 in
09:06 52.9 °F 51.2 °F 29.93 in SSW 5.1 mph 10.4 mph 94 % 0.07 in
09:11 52.9 °F 51.2 °F 29.93 in South 5.0 mph 9.2 mph 94 % 0.07 in
09:21 53.0 °F 51.6 °F 29.93 in South 7.4 mph 10.4 mph 95 % 0.07 in
09:26 53.0 °F 51.6 °F 29.93 in SSW 5.3 mph 8.1 mph 95 % 0.06 in
09:32 53.0 °F 51.6 °F 29.93 in South 6.1 mph 9.2 mph 95 % 0.07 in
09:37 53.1 °F 51.7 °F 29.93 in South 7.2 mph 12.7 mph 95 % 0.06 in
09:42 53.1 °F 51.7 °F 29.93 in SSW 4.5 mph 7.0 mph 95 % 0.05 in
09:47 53.2 °F 51.8 °F 29.94 in SSW 3.4 mph 6.0 mph 95 % 0.04 in
09:52 53.3 °F 51.9 °F 29.94 in SW 3.6 mph 6.9 mph 95 % 0.03 in
09:57 53.3 °F 51.9 °F 29.94 in SW 7.8 mph 13.8 mph 95 % 0.03 in
10:02 53.4 °F 52.3 °F 29.94 in SSW 2.8 mph 6.9 mph 96 % 0.03 in
10:07 53.5 °F 52.4 °F 29.94 in SSW 2.6 mph 4.6 mph 96 % 0.03 in
10:12 53.5 °F 52.4 °F 29.94 in South 5.4 mph 9.2 mph 96 % 0.03 in
10:17 53.6 °F 52.5 °F 29.94 in SSW 3.4 mph 9.0 mph 96 % 0.03 in
10:23 53.7 °F 52.6 °F 29.94 in WSW 2.6 mph 4.0 mph 96 % 0.03 in
10:28 53.8 °F 52.7 °F 29.95 in South 5.2 mph 6.9 mph 96 % 0.04 in
10:33 53.9 °F 52.8 °F 29.95 in SSW 5.3 mph 10.4 mph 96 % 0.03 in
10:38 54.0 °F 52.9 °F 29.95 in South 3.5 mph 5.0 mph 96 % 0.03 in
10:43 54.2 °F 53.1 °F 29.95 in SW 3.6 mph 6.0 mph 96 % 0.03 in
10:48 54.4 °F 53.3 °F 29.95 in SW 3.0 mph 4.6 mph 96 % 0.03 in
10:53 54.5 °F 53.4 °F 29.95 in SSW 4.8 mph 6.9 mph 96 % 0.03 in
10:58 54.6 °F 53.5 °F 29.96 in South 2.1 mph 4.6 mph 96 % 0.02 in
11:03 54.6 °F 53.5 °F 29.96 in SSW 5.3 mph 6.0 mph 96 % 0.03 in
11:09 54.6 °F 53.5 °F 29.97 in WSW 3.4 mph 6.9 mph 96 % 0.03 in
11:14 54.5 °F 53.4 °F 29.98 in West 2.5 mph 7.0 mph 96 % 0.03 in
11:19 54.4 °F 53.3 °F 29.99 in West 6.3 mph 15.0 mph 96 % 0.03 in
11:24 53.7 °F 52.0 °F 29.99 in WSW 7.5 mph 12.7 mph 94 % 0.03 in
11:29 53.1 °F 51.1 °F 29.99 in WSW 4.9 mph 6.9 mph 93 % 0.02 in
11:34 52.7 °F 50.7 °F 29.99 in West 3.7 mph 5.8 mph 93 % 0.02 in
11:39 52.2 °F 49.9 °F 30.00 in WSW 4.1 mph 12.7 mph 92 % 0.02 in
11:44 51.6 °F 49.1 °F 30.00 in WNW 2.5 mph 6.9 mph 91 % 0.02 in
11:49 51.2 °F 48.7 °F 30.00 in WSW 3.0 mph 10.4 mph 91 % 0.03 in
11:54 50.8 °F 48.3 °F 30.00 in WSW 4.6 mph 9.0 mph 91 % 0.03 in
12:00 50.5 °F 48.0 °F 30.00 in West 4.2 mph 4.2 mph 91 % 0.02 in
12:05 50.3 °F 47.8 °F 30.00 in WSW 4.5 mph 6.9 mph 91 % 0.02 in
12:10 49.9 °F 47.4 °F 30.01 in WSW 5.6 mph 9.2 mph 91 % 0.02 in
12:15 49.6 °F 47.4 °F 30.01 in SW 5.4 mph 11.5 mph 92 % 0.02 in
12:20 49.3 °F 47.1 °F 30.01 in West 4.4 mph 11.5 mph 92 % 0.01 in
12:25 48.9 °F 46.7 °F 30.01 in West 6.0 mph 8.1 mph 92 % 0.01 in
12:30 48.7 °F 46.8 °F 30.01 in West 5.6 mph 9.2 mph 93 % 0.01 in
12:35 48.6 °F 46.7 °F 30.01 in West 4.0 mph 10.4 mph 93 % 0.01 in
12:45 48.3 °F 46.4 °F 30.01 in West 5.7 mph 8.1 mph 93 % 0.00 in
12:51 48.2 °F 46.3 °F 30.01 in WSW 5.4 mph 11.5 mph 93 % 0.00 in
12:56 48.1 °F 46.5 °F 30.02 in WNW 2.3 mph 6.9 mph 94 % 0.00 in
13:01 47.9 °F 46.3 °F 30.02 in WSW 3.7 mph 6.9 mph 94 % 0.00 in
13:06 47.9 °F 46.3 °F 30.01 in NW 2.0 mph 5.0 mph 94 % 0.00 in
13:11 47.8 °F 46.2 °F 30.02 in West 6.7 mph 11.5 mph 94 % 0.01 in
13:16 47.8 °F 46.2 °F 30.02 in WSW 3.6 mph 6.9 mph 94 % 0.01 in
13:21 47.8 °F 46.2 °F 30.02 in West 1.7 mph 9.0 mph 94 % 0.01 in
13:26 47.9 °F 46.3 °F 30.02 in WNW 3.8 mph 6.0 mph 94 % 0.01 in
13:31 47.8 °F 46.2 °F 30.02 in WNW 1.9 mph 4.6 mph 94 % 0.01 in
13:36 47.8 °F 45.9 °F 30.03 in WNW 5.6 mph 8.1 mph 93 % 0.01 in
13:42 47.8 °F 45.9 °F 30.03 in West 2.4 mph 8.1 mph 93 % 0.01 in
13:47 47.8 °F 45.9 °F 30.03 in WNW 4.4 mph 8.1 mph 93 % 0.01 in
13:52 47.7 °F 45.8 °F 30.03 in West 1.8 mph 8.1 mph 93 % 0.01 in
13:57 47.8 °F 45.6 °F 30.03 in WNW 4.2 mph 9.2 mph 92 % 0.01 in
14:02 47.8 °F 45.6 °F 30.03 in West 3.6 mph 9.2 mph 92 % 0.01 in
14:07 47.8 °F 45.6 °F 30.03 in WNW 4.7 mph 6.9 mph 92 % 0.00 in
14:17 48.0 °F 45.8 °F 30.04 in WNW 5.1 mph 8.1 mph 92 % 0.00 in
14:27 48.1 °F 45.9 °F 30.04 in WNW 1.6 mph 3.5 mph 92 % 0.00 in
14:33 48.2 °F 46.0 °F 30.04 in North 3.3 mph 4.6 mph 92 % 0.00 in
14:38 48.2 °F 45.7 °F 30.04 in NW 2.9 mph 5.8 mph 91 % 0.00 in
14:43 48.3 °F 45.8 °F 30.04 in NW 2.6 mph 4.6 mph 91 % 0.00 in
14:48 48.3 °F 45.8 °F 30.04 in NW 2.7 mph 4.6 mph 91 % 0.00 in
14:53 48.4 °F 45.9 °F 30.04 in NNW 2.6 mph 4.6 mph 91 % 0.00 in
14:58 48.6 °F 46.1 °F 30.04 in NW 1.9 mph 3.5 mph 91 % 0.00 in
15:03 48.7 °F 46.2 °F 30.04 in WNW 2.6 mph 4.6 mph 91 % 0.00 in
15:08 48.9 °F 46.4 °F 30.04 in NNW 1.0 mph 3.5 mph 91 % 0.00 in
15:13 49.0 °F 46.2 °F 30.05 in WNW 2.9 mph 4.6 mph 90 % 0.00 in
15:18 49.2 °F 46.4 °F 30.04 in NNW 2.3 mph 6.0 mph 90 % 0.00 in
15:24 49.3 °F 45.9 °F 30.04 in NW 1.7 mph 3.5 mph 88 % 0.00 in
15:29 49.6 °F 45.9 °F 30.05 in West 2.0 mph 4.6 mph 87 % 0.00 in
15:34 49.9 °F 45.9 °F 30.04 in WNW 3.0 mph 4.6 mph 86 % 0.00 in
15:39 50.2 °F 45.2 °F 30.05 in WNW 1.4 mph 5.0 mph 83 % 0.00 in
15:44 50.5 °F 45.8 °F 30.04 in WNW 2.6 mph 5.0 mph 84 % 0.00 in
15:49 50.9 °F 45.9 °F 30.04 in WNW 3.1 mph 4.6 mph 83 % 0.00 in
15:54 51.5 °F 47.1 °F 30.04 in NW 0.8 mph 3.5 mph 85 % 0.00 in
15:59 52.6 °F 48.2 °F 30.04 in West 2.7 mph 4.0 mph 85 % 0.00 in
16:04 53.2 °F 47.5 °F 30.04 in West 0.8 mph 4.0 mph 81 % 0.00 in
16:09 53.8 °F 47.8 °F 30.04 in NW 1.5 mph 3.5 mph 80 % 0.00 in
16:15 54.3 °F 47.9 °F 30.05 in NNE 2.6 mph 4.6 mph 79 % 0.00 in
16:20 54.5 °F 46.4 °F 30.04 in NW 2.6 mph 3.5 mph 74 % 0.00 in
16:25 54.6 °F 47.2 °F 30.05 in North 1.5 mph 2.3 mph 76 % 0.00 in
16:30 54.7 °F 47.6 °F 30.04 in NNE 0.8 mph 3.0 mph 77 % 0.00 in
16:35 54.7 °F 47.3 °F 30.05 in NNE 0.5 mph 2.3 mph 76 % 0.00 in
16:40 54.8 °F 45.9 °F 30.05 in NNE 1.0 mph 2.3 mph 72 % 0.00 in
16:45 55.1 °F 46.2 °F 30.05 in NNE 1.1 mph 3.5 mph 72 % 0.00 in
16:55 55.8 °F 45.8 °F 30.06 in NW 1.6 mph 3.5 mph 69 % 0.00 in
17:00 56.1 °F 46.1 °F 30.06 in West 2.4 mph 3.5 mph 69 % 0.00 in
17:06 56.5 °F 45.3 °F 30.05 in WSW 2.5 mph 6.0 mph 66 % 0.00 in
17:11 56.8 °F 44.7 °F 30.05 in WNW 2.3 mph 4.6 mph 64 % 0.00 in
17:16 57.1 °F 45.4 °F 30.06 in West 2.2 mph 5.8 mph 65 % 0.00 in
17:21 57.3 °F 44.8 °F 30.06 in WNW 2.3 mph 4.0 mph 63 % 0.00 in
17:26 57.5 °F 44.6 °F 30.06 in NW 2.3 mph 5.8 mph 62 % 0.00 in
17:31 57.5 °F 44.6 °F 30.07 in WNW 3.6 mph 4.0 mph 62 % 0.00 in
17:36 57.7 °F 43.9 °F 30.07 in WNW 3.8 mph 4.0 mph 60 % 0.00 in
17:41 57.7 °F 43.9 °F 30.07 in West 1.0 mph 3.5 mph 60 % 0.00 in
17:46 57.8 °F 43.6 °F 30.07 in WSW 3.9 mph 4.0 mph 59 % 0.00 in
17:51 57.6 °F 41.5 °F 30.08 in WNW 6.1 mph 6.9 mph 55 % 0.00 in
17:57 57.5 °F 41.0 °F 30.08 in WNW 2.9 mph 8.1 mph 54 % 0.00 in
18:02 57.2 °F 39.7 °F 30.08 in WSW 2.5 mph 4.0 mph 52 % 0.00 in
18:07 57.2 °F 39.2 °F 30.09 in West 2.2 mph 5.8 mph 51 % 0.00 in
18:12 56.9 °F 38.9 °F 30.09 in WNW 3.9 mph 6.0 mph 51 % 0.00 in
18:17 56.4 °F 40.0 °F 30.09 in NNE 2.1 mph 3.5 mph 54 % 0.00 in
18:22 55.7 °F 37.8 °F 30.09 in North 5.3 mph 10.4 mph 51 % 0.00 in
18:27 55.0 °F 36.2 °F 30.10 in NW 4.1 mph 11.5 mph 49 % 0.00 in
18:37 54.3 °F 36.5 °F 30.10 in WNW 3.7 mph 5.8 mph 51 % 0.00 in
18:42 54.1 °F 36.9 °F 30.10 in West 2.1 mph 4.0 mph 52 % 0.00 in
18:48 53.8 °F 36.1 °F 30.10 in WNW 8.4 mph 9.2 mph 51 % 0.00 in
18:53 53.5 °F 36.8 °F 30.11 in WNW 4.8 mph 9.2 mph 53 % 0.00 in
18:58 53.2 °F 36.5 °F 30.11 in NNW 3.5 mph 5.8 mph 53 % 0.00 in
19:03 52.9 °F 36.2 °F 30.11 in NW 5.7 mph 9.2 mph 53 % 0.00 in
19:08 52.6 °F 36.9 °F 30.11 in West 2.2 mph 3.5 mph 55 % 0.00 in
19:13 52.3 °F 37.5 °F 30.12 in NNE 2.7 mph 4.6 mph 57 % 0.00 in
19:18 51.8 °F 37.0 °F 30.13 in NW 3.9 mph 9.2 mph 57 % 0.00 in
19:23 51.5 °F 37.2 °F 30.13 in NW 2.2 mph 6.9 mph 58 % 0.00 in
19:33 51.0 °F 37.2 °F 30.13 in NNW 4.1 mph 6.9 mph 59 % 0.00 in
19:39 50.7 °F 35.6 °F 30.14 in WSW 5.9 mph 9.2 mph 56 % 0.00 in
19:44 50.5 °F 35.8 °F 30.14 in NW 8.0 mph 13.8 mph 57 % 0.00 in
19:49 50.4 °F 35.7 °F 30.14 in WNW 4.9 mph 11.0 mph 57 % 0.00 in
19:54 50.4 °F 34.8 °F 30.15 in WNW 3.9 mph 6.9 mph 55 % 0.00 in
19:59 50.4 °F 35.7 °F 30.15 in NNW 4.1 mph 10.4 mph 57 % 0.00 in
20:04 50.3 °F 35.2 °F 30.16 in NW 5.9 mph 11.5 mph 56 % 0.00 in
20:09 50.1 °F 34.5 °F 30.16 in WSW 4.9 mph 10.4 mph 55 % 0.00 in
20:14 50.0 °F 34.9 °F 30.16 in NW 2.9 mph 8.1 mph 56 % 0.00 in
20:19 49.9 °F 35.3 °F 30.17 in WNW 2.7 mph 9.2 mph 57 % 0.00 in
20:24 49.7 °F 35.1 °F 30.17 in WNW 6.3 mph 10.4 mph 57 % 0.00 in
20:30 49.5 °F 35.3 °F 30.18 in NNW 4.1 mph 9.2 mph 58 % 0.00 in
20:35 49.4 °F 35.7 °F 30.18 in NNE 2.8 mph 4.0 mph 59 % 0.00 in
20:40 49.2 °F 37.1 °F 30.19 in North 3.8 mph 6.9 mph 63 % 0.00 in
20:45 48.9 °F 36.0 °F 30.19 in NW 5.0 mph 9.2 mph 61 % 0.00 in
20:50 48.6 °F 35.3 °F 30.19 in North 5.3 mph 8.1 mph 60 % 0.00 in
20:55 48.3 °F 35.9 °F 30.20 in NNE 5.2 mph 8.1 mph 62 % 0.00 in
21:00 48.1 °F 36.5 °F 30.20 in NNE 2.7 mph 4.0 mph 64 % 0.00 in
21:05 47.8 °F 36.2 °F 30.21 in NNE 4.9 mph 9.2 mph 64 % 0.00 in
21:10 47.6 °F 36.0 °F 30.21 in North 2.1 mph 4.0 mph 64 % 0.00 in
21:15 47.4 °F 34.6 °F 30.22 in North 7.3 mph 11.5 mph 61 % 0.00 in
21:21 47.3 °F 33.3 °F 30.22 in NNE 7.8 mph 10.4 mph 58 % 0.00 in
21:26 47.3 °F 33.3 °F 30.22 in North 7.5 mph 11.5 mph 58 % 0.00 in
21:31 47.3 °F 33.7 °F 30.23 in NNE 8.1 mph 11.0 mph 59 % 0.00 in
21:36 47.2 °F 33.6 °F 30.22 in North 6.4 mph 10.4 mph 59 % 0.00 in
21:41 47.1 °F 33.5 °F 30.23 in NW 4.2 mph 9.2 mph 59 % 0.00 in
21:46 47.0 °F 33.4 °F 30.24 in NNE 4.3 mph 6.9 mph 59 % 0.00 in
21:51 46.9 °F 33.7 °F 30.24 in North 5.2 mph 8.1 mph 60 % 0.00 in
21:56 46.7 °F 33.5 °F 30.24 in NNW 3.8 mph 6.9 mph 60 % 0.00 in
22:01 46.6 °F 32.6 °F 30.24 in North 6.6 mph 9.2 mph 58 % 0.00 in
22:06 46.5 °F 32.9 °F 30.24 in North 3.2 mph 7.0 mph 59 % 0.00 in
22:12 46.3 °F 31.9 °F 30.25 in North 4.1 mph 10.4 mph 57 % 0.00 in
22:17 46.2 °F 32.2 °F 30.25 in NW 1.3 mph 8.1 mph 58 % 0.00 in
22:22 46.1 °F 33.0 °F 30.25 in North 1.9 mph 3.5 mph 60 % 0.00 in
22:27 46.0 °F 32.5 °F 30.25 in North 3.7 mph 6.9 mph 59 % 0.00 in
22:32 45.9 °F 32.8 °F 30.25 in NW 2.9 mph 4.0 mph 60 % 0.00 in
22:37 45.7 °F 32.6 °F 30.25 in North 3.3 mph 6.9 mph 60 % 0.00 in
22:42 45.5 °F 32.8 °F 30.25 in North 5.2 mph 9.2 mph 61 % 0.00 in
22:47 45.4 °F 31.9 °F 30.25 in NNW 2.3 mph 5.8 mph 59 % 0.00 in
22:52 45.3 °F 31.4 °F 30.25 in NNW 2.9 mph 4.6 mph 58 % 0.00 in
22:57 45.3 °F 32.2 °F 30.25 in North 1.9 mph 3.5 mph 60 % 0.00 in
23:03 45.2 °F 32.1 °F 30.25 in North 2.4 mph 3.5 mph 60 % 0.00 in
23:08 45.1 °F 32.4 °F 30.25 in North 1.2 mph 3.5 mph 61 % 0.00 in
23:13 45.0 °F 32.3 °F 30.25 in North 2.0 mph 3.5 mph 61 % 0.00 in
23:18 44.9 °F 32.7 °F 30.26 in NNE 2.3 mph 5.0 mph 62 % 0.00 in
23:23 44.7 °F 32.1 °F 30.25 in North 2.1 mph 3.5 mph 61 % 0.00 in
23:28 44.6 °F 32.0 °F 30.26 in NNW 1.8 mph 6.9 mph 61 % 0.00 in
23:33 44.4 °F 31.4 °F 30.26 in NNE 4.4 mph 5.8 mph 60 % 0.00 in
23:38 44.3 °F 31.3 °F 30.26 in NNE 5.1 mph 8.1 mph 60 % 0.00 in
23:48 44.2 °F 31.6 °F 30.26 in NNE 2.6 mph 3.5 mph 61 % 0.00 in
23:54 44.1 °F 31.9 °F 30.26 in North 3.3 mph 5.8 mph 62 % 0.00 in
23:59 44.0 °F 31.8 °F 30.26 in NNW 3.1 mph 4.6 mph 62 % 0.00 in
Crab Meadow Weather
Compliments of Weather Underground - 2.75 mb

Script developed by  Jim McMurry - jmcmurry@mwt.net Adapted for the template by  Wim van der Kuil - Leuven-Template.eu

Recycling: Americans use 2,500,000 plastic bottles every hour! Most of them are thrown away!